"Pseudo-MPEC" for ZTB75D5

Created 2018 Oct 13 14:18:25 UT using Find_Orb

Click here for an explanation of pseudo-MPECs

 
 Astrometry: 
     ZTB75D5  C2018 10 10.37662 04 38 30.76 +22 37 36.4          20.0 GVNEOCPG96
     ZTB75D5  C2018 10 10.38180 04 38 32.29 +22 36 22.8          20.2 GVNEOCPG96
     ZTB75D5  C2018 10 10.38699 04 38 33.80 +22 35 09.1          20.2 GVNEOCPG96
     ZTB75D5  C2018 10 10.39216 04 38 35.34 +22 33 55.4          19.8 GVNEOCPG96
     ZTB75D5  C2018 10 10.48778 04 39 03.45 +22 11 02.8          19.6 GVNEOCPI52
     ZTB75D5  C2018 10 10.48834 04 39 03.64 +22 10 54.9          19.9 GVNEOCPI52
     ZTB75D5  C2018 10 10.49051 04 39 04.29 +22 10 23.3          19.8 GVNEOCPI52
     ZTB75D5  C2018 10 10.49107 04 39 04.41 +22 10 14.9          19.8 GVNEOCPI52
     ZTB75D5 KC2018 10 11.3AstrometryM%U8d6^`.KQxnm-or3-[jh5.\GH9yVL6[eTr#:ZOK88
     ZTB75D5 KC2018 10 11k2w_@l1-TlQB[_$(-q'dQTT2s.^vIr%:+S%I?2#1cymH#u0N#t%1K88
     ZTB75D5 KC2018 10 11(k^6*Z9V:TaafeRBl;A_x4NL7+*Q:t5O4kiBS+]sKLm0g5o_3)g:K88
     ZTB75D5 KC2018 10 11uiyQMPlHeA\W0$doa]@%/4iQ#^j6BX*qG*uZHwiY1S7u#R2C2v1!L01
     ZTB75D5 KC2018 10 11Mh:qY\Oc-Qm/L(2#\U6m/MBf%Tc7*umW=-OvCX`P/-95iK8K[NDUL01
     ZTB75D5 KC2018 10 11:0[osLyH?1fL:boLHy\0mqyrdKS8Cwn^-)-[/`)OKoUe2%l4XNDKL01
     ZTB75D5  C2018 10 11yDxcI+Vl)$Pja]%pD/EoXU5jZ[Yl/#b!pJ!\q^:GO!_.q]=q,PutH01
     ZTB75D5  C2018 10 11`VSR?WJ(2t.]vD.Z^redacted;Uc_nr0Qi[8?a3:!jG.c$2k7-SNH01
     ZTB75D5  C2018 10 11)w\=5k[N`-9kPt)J\q];ek$D$p5e#=HUyejD?^aX*l,3h*Zyyq$CH01
     ZTB75D5  C2018 10 11ON2:QOb,((QM\Jex\ojh),Wg@]gs.E=8sO,JYI1a+b4A2T?nI/6,H01
     ZTB75D5 KC2018 10 12omNi*ocm:Z_3/k7Bn*yru*L:xv$5(s\0=A%4?`M,Ixlgv@?n;IuVH21
     ZTB75D5 KC2018 10 12q4kS-'d$HC*6cjcIn\G`I6iu^_DY;*OE^6M;uEyfbDO28e3R45hXH21
     ZTB75D5 KC2018 10 120L=/,2c6;/N+6PF1PQ8D'$\Fl45[VmF(dU4Pr%k[Svq^w]4w4Ao_H21
     ZTB75D5  C2018 10 12WQEQf!x2]bAL8:Q]u^YmBVP0-k(4P9P[^[G9YZQuU#go.JEl)li:246
     ZTB75D5  C2018 10 12vyG:j*NtCX/\91OLEG]4pk^o^Ba'\]]wKgy18/mRtvX?#?`:iRS8246
     ZTB75D5 KC2018 10 12juyq16QHhV6nV!`?Hl9DKX!QQbEunx38seeM3c^#:akqw9MRFl_x104
     ZTB75D5 KC2018 10 12=qnnw0l1txe2!%sGPp`W`#-bUJ3Us6qg3[3x]-PH@,'9SXd95fT9104
     ZTB75D5 KC2018 10 12CaUx1C-^Y$KF__yvlODf[K4]jNs0\fSCAQ.d^mwrDU1CQXLOD.UJ104
     ZTB75D5 KC2018 10 13B8nJe%,QX)sd87_5?W3Ni0ZG\/EjpgWkBCxt[G@s8B2M;j:j3JJ4595
     ZTB75D5 KC2018 10 13-3YwR)cH0_kb3GCZgqMd)%s;I`?stLa.$97BV_,;QnOR8c@c6^lk595
     ZTB75D5 KC2018 10 13c@`3%`U,!c0:,J:mfEaowSXqIUc:s)T,cYFr?H[)66gP]-ODLR4x204
     ZTB75D5 KC2018 10 13H7S1+Ln_22s3*8[@BQV2r`o%5m[;EJ9naGYmMN,:`%MDrbd:9@2Z204
     ZTB75D5 KC2018 10 13ukIhMehQX\8Yo_-wFG]%N(w6FkOgq;!F-K54jWemW\bqC`=NEOCP204

Station data:
(104) San Marcello Pistoiese  (N44.063037 E10.804200)  Italy. 0.40-m f/5
   reflector.
(204) Schiaparelli Observatory  (N45.867933 E8.770800)  Italy.  Observer L.
   Buzzi. 0.60-m f/4.64 Newtonian + CCD.
(246) Klet Observatory-KLENOT  (N48.863293 E14.288100)  Czech Republic.
   1.06-m KLENOT telescope.
(595) Farra d'Isonzo  (N45.915734 E13.525780)  Italy.  Observers L.
   Bittesini, F. Fabris, E. Pettarin, F. Piani. Measurer E. Pettarin. 0.30-m
   f/4.5 reflector + CCD.
(G96) Mt. Lemmon Survey  (N32.442754 W110.788720)  US/Arizona.  Observers B.
   M. Africano, E. J. Christensen, D. C. Fuls, A. R. Gibbs, A. D. Grauer, J.
   A. Johnson, R. A. Kowalski, S. M. Larson, G. J. Leonard, R. L. Seaman, F.
   C. Shelly. 1.5-m reflector + 10K CCD.
(H01) Magdalena Ridge Observatory, Socorro  (N33.984833 W107.189333)  US/New
   Mexico.  Observers W. H. Ryan, E. V. Ryan. Measurer W. H. Ryan. 2.4-m
   f/8.9 reflector + CCD.
(H21) Astronomical Research Observatory, Westfield  (N39.483057 W87.968270)
   US/Illinois. 0.76-m f/3.0 astrograph + CCD.
(I52) Steward Observatory, Mt. Lemmon Station  (N32.442547 W110.788920)
   US/Arizona.  Observers B. M. Africano, E. J. Christensen, D. C. Fuls, A.
   R. Gibbs, A. D. Grauer, J. A. Johnson, R. A. Kowalski, S. M. Larson, G. J.
   Leonard, R. L. Seaman, F. C. Shelly. 1.0-m reflector + CCD.
(K88) GINOP-KHK, Piszkéstető  (N47.917622 E19.893600)  Hungary.  Observer K.
   Sárneczky. 0.60-m Schmidt + CCD.
(L01) Višnjan Observatory, Tičan  (N45.290900 E13.749300)  Croatia.  Observer
   K. Korlević. 1.0-m f/2.9 reflector + CCD.

Orbital elements:  ZTB75D5
   Perihelion 2018 Nov 28.282788 +/- 0.45 TT =  6:47:12 (JD 2458450.782788)
Epoch 2018 Oct 13.0 TT = JDT 2458404.5   Earth MOID: 0.1223   AutoNEOCP
M 346.14462 +/- 0.6                 (J2000 ecliptic)
n   0.29936355 +/- 0.0105           Peri.  238.55746 +/- 0.48
a   2.21311217 +/- 0.0516           Node   205.43150 +/- 0.046
e   0.5783585 +/- 0.00904           Incl.   54.12701 +/- 0.25
P   3.29                   H 21.7   G  0.15   U  9.7  
q 0.93313983 +/- 0.0017    Q 3.49308452 +/- 0.098
From 31 observations 2018 Oct. 10-13; mean residual 0".24
Residuals in arcseconds: 
181010 G96  .04+  .41-    181011 L01  .19+  .23-    181012 246  .23+  .15-    
181010 G96  .07+  .30-    181011 L01  .12-  .18-    181012 104  .04+  .13-    
181010 G96  .20-  .08-    181011 L01  .08+  .00     181012 104  .24-  .13+    
181010 G96  .03+  .10-    181011 H01  .26+  .00     181012 104  .37-  .74+    
181010 I52  .22-  .18+    181011 H01  .23+  .04+    181013 595  .12-  .31-    
181010 I52  .13+  .38+    181011 H01  .16+  .11-    181013 595  .40+  .06+    
181010 I52  .27+  .16+    181011 H01  .22+  .17-    181013 204  .25+  .07-    
181010 I52  .35-  .14-    181012 H21  .06+  .06-    181013 204  .01+  .03+    
181011 K88  .19-  .71+    181012 H21  .15+  .12-    181013 204  .00   .08+    
181011 K88  .27-  .18+    181012 H21  .19+  .09-    
181011 K88  .20-  .18+    181012 246  .62-  .19-    

Ephemerides (geocentric):
Date (UTC) HH   RA              Dec         delta   r     elong  mag " sig PA
---- -- -- --  -------------   -----------  ------ ------ -----  --- ---- ---
2018 10 13 14  04 55 54.991   +07 37 58.88  .17928 1.1102 125.0 20.0  .22 130
2018 10 13 15  04 56 09.314   +07 24 31.28  .17901 1.1100 124.9 19.9  .23 129
2018 10 13 16  04 56 23.656   +07 11 01.20  .17874 1.1097 124.9 19.9  .23 128
2018 10 13 17  04 56 38.019   +06 57 28.65  .17847 1.1094 124.9 19.9  .23 126
2018 10 13 18  04 56 52.402   +06 43 53.64  .17820 1.1091 124.8 19.9  .23 125
2018 10 13 19  04 57 06.806   +06 30 16.21  .17794 1.1088 124.8 19.9  .24 123
2018 10 13 20  04 57 21.229   +06 16 36.37  .17768 1.1085 124.7 19.9  .24 122
2018 10 13 21  04 57 35.673   +06 02 54.13  .17743 1.1083 124.7 19.9  .24 121
2018 10 13 22  04 57 50.138   +05 49 09.51  .17717 1.1080 124.6 19.9  .25 119
2018 10 13 23  04 58 04.623   +05 35 22.54  .17692 1.1077 124.6 19.9  .25 118
2018 10 14 00  04 58 19.128   +05 21 33.23  .17668 1.1074 124.6 19.9  .25 116
2018 10 14 01  04 58 33.654   +05 07 41.61  .17643 1.1071 124.5 19.9  .26 115
2018 10 14 02  04 58 48.200   +04 53 47.68  .17619 1.1069 124.5 19.9  .26 113
2018 10 14 03  04 59 02.767   +04 39 51.49  .17595 1.1066 124.4 19.9  .27 112
2018 10 14 04  04 59 17.355   +04 25 53.04  .17572 1.1063 124.4 19.9  .27 111
2018 10 14 05  04 59 31.963   +04 11 52.36  .17549 1.1060 124.3 19.9  .28 109
2018 10 14 06  04 59 46.592   +03 57 49.48  .17526 1.1057 124.3 19.9  .28 108
2018 10 14 07  05 00 01.242   +03 43 44.41  .17503 1.1055 124.2 19.9  .29 107
2018 10 14 08  05 00 15.912   +03 29 37.17  .17481 1.1052 124.2 19.9  .29 105
2018 10 14 09  05 00 30.604   +03 15 27.80  .17459 1.1049 124.1 19.9  .30 104
2018 10 14 10  05 00 45.316   +03 01 16.31  .17437 1.1046 124.1 19.9  .30 103
2018 10 14 11  05 01 00.050   +02 47 02.74  .17416 1.1043 124.0 19.9  .31 101
2018 10 14 12  05 01 14.804   +02 32 47.10  .17395 1.1041 123.9 19.9  .31 100
2018 10 14 13  05 01 29.580   +02 18 29.42  .17375 1.1038 123.9 19.9  .32  99
2018 10 14 14  05 01 44.376   +02 04 09.73  .17354 1.1035 123.8 19.9  .33  98
2018 10 14 15  05 01 59.194   +01 49 48.05  .17334 1.1032 123.8 19.9  .33  97
2018 10 14 16  05 02 14.033   +01 35 24.41  .17315 1.1030 123.7 19.9  .34  95
2018 10 14 17  05 02 28.893   +01 20 58.84  .17295 1.1027 123.7 19.9  .35  94
2018 10 14 18  05 02 43.774   +01 06 31.36  .17276 1.1024 123.6 19.9  .35  93
2018 10 14 19  05 02 58.677   +00 52 02.01  .17258 1.1021 123.5 19.9  .36  92
2018 10 14 20  05 03 13.601   +00 37 30.81  .17239 1.1018 123.5 19.9  .37  91
2018 10 14 21  05 03 28.547   +00 22 57.79  .17221 1.1016 123.4 19.9  .37  90
2018 10 14 22  05 03 43.514   +00 08 22.97  .17203 1.1013 123.3 19.9  .38  89
2018 10 14 23  05 03 58.502   -00 06 13.60  .17186 1.1010 123.3 19.9  .39  88
2018 10 15 00  05 04 13.512   -00 20 51.91  .17169 1.1007 123.2 19.9  .40  87
2018 10 15 01  05 04 28.544   -00 35 31.91  .17152 1.1005 123.1 19.9  .41  86
2018 10 15 02  05 04 43.597   -00 50 13.59  .17136 1.1002 123.1 19.9  .42  85
2018 10 15 03  05 04 58.672   -01 04 56.91  .17120 1.0999 123.0 19.9  .42  84
2018 10 15 04  05 05 13.769   -01 19 41.83  .17104 1.0996 122.9 19.9  .43  83
2018 10 15 05  05 05 28.887   -01 34 28.33  .17089 1.0993 122.8 19.9  .44  82
2018 10 15 06  05 05 44.027   -01 49 16.37  .17074 1.0991 122.8 19.9  .45  81
2018 10 15 07  05 05 59.189   -02 04 05.93  .17059 1.0988 122.7 19.9  .46  80
2018 10 15 08  05 06 14.374   -02 18 56.96  .17045 1.0985 122.6 19.9  .47  79
2018 10 15 09  05 06 29.580   -02 33 49.43  .17031 1.0982 122.5 19.9  .48  78
2018 10 15 10  05 06 44.808   -02 48 43.32  .17017 1.0980 122.5 19.9  .49  77
2018 10 15 11  05 07 00.058   -03 03 38.59  .17004 1.0977 122.4 19.9  .50  76
2018 10 15 12  05 07 15.330   -03 18 35.20  .16991 1.0974 122.3 19.9  .51  76
2018 10 15 13  05 07 30.624   -03 33 33.11  .16978 1.0971 122.2 19.9  .52  75